This is the latest recevied weather packets stored in our database for station/object AI5BL. If no packets are shown the sender has not sent any weather packets the latest 10 day(s).
| Time | Temp. | Humidity | Pressure | Rain* | Wind** | Luminosity | Snow |
|---|---|---|---|---|---|---|---|
| 1788141103 | 26.67° C | 82% | 1019.5 hPa | 0 mm | - | 0 W/m² | - |
| 1788140798 | 26.67° C | 82% | 1019.4 hPa | 0 mm | - | 0 W/m² | - |
| 1788140493 | 26.67° C | 81% | 1019.2 hPa | 0 mm | - | 0 W/m² | - |
| 1788140190 | 27.22° C | 80% | 1019 hPa | 0 mm | - | 0 W/m² | - |
| 1788139889 | 27.22° C | 80% | 1019.1 hPa | 0 mm | - | 0 W/m² | - |
| 1788139584 | 27.78° C | 80% | 1019.1 hPa | 0 mm | - | 0 W/m² | - |
| 1788139279 | 27.78° C | 79% | 1018.8 hPa | 0 mm | - | 0 W/m² | - |
| 1788138973 | 27.78° C | 77% | 1019 hPa | 0 mm | - | 0 W/m² | - |
| 1788138669 | 28.33° C | 76% | 1019 hPa | 0 mm | - | 0 W/m² | - |
| 1788138365 | 28.33° C | 76% | 1018.8 hPa | 0 mm | - | 0 W/m² | - |
| 1788138060 | 28.33° C | 76% | 1018.9 hPa | 0 mm | - | 0 W/m² | - |
| 1788137759 | 28.89° C | 76% | 1018.8 hPa | 0 mm | - | 0 W/m² | - |
| 1788137454 | 28.89° C | 74% | 1018.6 hPa | 0 mm | - | 0 W/m² | - |
| 1788137150 | 28.89° C | 73% | 1018.3 hPa | 0 mm | - | 0 W/m² | - |
| 1788136861 | 29.44° C | 71% | 1018.5 hPa | 0 mm | - | 0 W/m² | - |
| 1788136542 | 29.44° C | 69% | 1018.3 hPa | 0 mm | - | 0 W/m² | - |
| 1788136238 | 29.44° C | 70% | 1018.2 hPa | 0 mm | - | 1 W/m² | - |
| 1788135936 | 30° C | 69% | 1018.1 hPa | 0 mm | - | 2 W/m² | - |
| 1788135631 | 30° C | 70% | 1018.1 hPa | 0 mm | - | 4 W/m² | - |
| 1788135327 | 30° C | 68% | 1018.2 hPa | 0 mm | - | 6 W/m² | - |
| 1788135024 | 30.56° C | 69% | 1018.3 hPa | 0 mm | - | 11 W/m² | - |
| 1788134720 | 30.56° C | 67% | 1018.2 hPa | 0 mm | - | 18 W/m² | - |
| 1788134419 | 30.56° C | 65% | 1018.1 hPa | 0 mm | - | 20 W/m² | - |
| 1788134118 | 30.56° C | 64% | 1018.2 hPa | 0 mm | - | 23 W/m² | - |
| 1788133813 | 30.56° C | 69% | 1018.2 hPa | 0 mm | - | 24 W/m² | - |
* Rain latest hour (hover to see other rain measurements)
** Current wind speed in m/s (hover to see current wind gust speed)